Location: Nitra
(48.3167°N, 18.0833°E)
Time: 17:46:58
(UTC+01:00)

STARLINK-1546 - Pass Details

Date: 24 September 2020
Orbit: 378 x 381 km, 53.0° (Epoch: 30 October)

Event Time Altitude Azimuth Distance (km) Brightness Sun altitude
Exits shadow 03:32:00 15° 55° (NE) 1,200 6.1 -29.6°
Drops below altitude 10° 03:32:45 10° 61° (ENE) 1,482 6.7 -29.5°
Sets 03:34:55 0° 69° (ENE) 2,343 7.9 -29.2°
